Location: Ajisawe
(8.4333°N, 4.3833°E)
Time: 14:12:53
(UTC+00:00)

Cosmos 2237 Rocket - Pass Details

Date: 07 June 2020
Orbit: 833 x 851 km, 71.0° (Epoch: 07 July)

Event Time Altitude Azimuth Distance (km) Brightness Sun altitude
Exits shadow 03:34:16 62° 275° (W) 942 2.1 -25.1°
Maximum altitude 03:34:27 62° 286° (WNW) 939 2.1 -25.0°
Drops below altitude 10° 03:40:01 10° 6° (N) 2,455 5.0 -23.8°
Sets 03:42:30 0° 10° (N) 3,392 5.9 -23.3°
